TimeCST,TemperatureF,Dew PointF,Humidity,Sea Level PressureIn,VisibilityMPH,Wind Direction,Wind SpeedMPH,Gust SpeedMPH,PrecipitationIn,Events,Conditions,WindDirDegrees,DateUTC
12:53 AM,39.0,37.9,96,30.07,10.0,Calm,Calm,-,N/A,,Clear,0,2012-11-07 06:53:00
1:53 AM,37.9,37.0,97,30.07,10.0,West,3.5,-,N/A,,Clear,280,2012-11-07 07:53:00
2:53 AM,37.0,36.0,96,30.07,10.0,Calm,Calm,-,N/A,,Clear,0,2012-11-07 08:53:00
3:53 AM,35.1,35.1,100,30.07,10.0,Calm,Calm,-,N/A,,Clear,0,2012-11-07 09:53:00
4:53 AM,35.1,35.1,100,30.09,10.0,Calm,Calm,-,N/A,,Clear,0,2012-11-07 10:53:00
5:53 AM,34.0,34.0,100,30.11,10.0,Calm,Calm,-,N/A,,Clear,0,2012-11-07 11:53:00
6:53 AM,35.1,34.0,96,30.12,10.0,Calm,Calm,-,N/A,,Clear,0,2012-11-07 12:53:00
7:53 AM,44.1,37.9,79,30.14,10.0,Calm,Calm,-,N/A,,Clear,0,2012-11-07 13:53:00
8:53 AM,52.0,37.0,57,30.14,10.0,Calm,Calm,-,N/A,,Clear,0,2012-11-07 14:53:00
9:53 AM,57.0,33.1,40,30.14,10.0,Variable,6.9,-,N/A,,Clear,0,2012-11-07 15:53:00
10:53 AM,59.0,30.9,35,30.14,10.0,NNW,8.1,18.4,N/A,,Clear,330,2012-11-07 16:53:00
11:53 AM,62.1,32.0,32,30.11,10.0,NNW,8.1,-,N/A,,Clear,330,2012-11-07 17:53:00
12:53 PM,64.0,30.0,28,30.08,10.0,NNW,8.1,-,N/A,,Clear,340,2012-11-07 18:53:00
1:53 PM,64.0,28.0,26,30.07,10.0,North,8.1,18.4,N/A,,Clear,350,2012-11-07 19:53:00
2:53 PM,64.9,30.0,27,30.07,10.0,NW,9.2,-,N/A,,Clear,320,2012-11-07 20:53:00
3:53 PM,64.0,28.9,27,30.08,10.0,Variable,4.6,-,N/A,,Clear,0,2012-11-07 21:53:00
4:53 PM,60.1,30.9,33,30.09,10.0,Calm,Calm,-,N/A,,Clear,0,2012-11-07 22:53:00
5:53 PM,51.1,33.1,50,30.10,10.0,Calm,Calm,-,N/A,,Clear,0,2012-11-07 23:53:00
6:53 PM,46.9,35.1,63,30.12,10.0,Calm,Calm,-,N/A,,Clear,0,2012-11-08 00:53:00
7:53 PM,43.0,36.0,76,30.12,10.0,Calm,Calm,-,N/A,,Clear,0,2012-11-08 01:53:00
8:53 PM,42.1,36.0,79,30.13,10.0,Calm,Calm,-,N/A,,Clear,0,2012-11-08 02:53:00
9:53 PM,41.0,36.0,82,30.14,10.0,Calm,Calm,-,N/A,,Clear,0,2012-11-08 03:53:00
10:53 PM,39.0,36.0,89,30.15,10.0,Calm,Calm,-,N/A,,Clear,0,2012-11-08 04:53:00
11:53 PM,37.0,35.1,93,30.15,10.0,Calm,Calm,-,N/A,,Clear,0,2012-11-08 05:53:00